Home > Time Zones > World Clock > Weather > Norway > Alta > Past weeks

Flag for Norway Weather past 2 weeks in Alta, Norway

Now
36 °F

Chilly.


Feels Like: 33 °F
Forecast: 32 / 44 °F
Wind: 3 mph from South

Location: Alta Lufthavn


UV Index: 0 (Low)

Visibility: N/A


Pressure: 30.29 "Hg

Humidity: 58%

Dew point: 22 °F

Location of AltaLocation

Historic Weather in Alta

°F

Alta temperature yesterday

Maximum temperature yesterday: 46 °F (at 1:00 PM)
Minimum temperature yesterday: 36 °F (at 12:00 AM)
Average temperature yesterday: 40 °F

Past Weeks' High & Low Weather Summary

 TemperatureHumidityPressure
High46 °F (Apr 19, 1:00 PM)96% (Apr 5, 10:00 PM)30.32 "Hg (Apr 5, 10:00 PM)
Low7 °F (Apr 8, 2:00 AM)44% (Apr 9, 1:00 PM)29.03 "Hg (Apr 13, 4:00 AM)
Average34 °F70%29.65 "Hg
* Reported Apr 5 8:00 PM — Apr 20 8:00 PM, Alta, Weather by CustomWeather, © 2014

Note: Actual official high and low records may vary slightly from our data, if they occured in-between our weather recording intervals... More about our weather records

Advertising

Historic Weather Conditions — Data for Previous 24 hours

 ConditionsComfort  
Time TempWeatherWind HumidityBarometerVisibility
8:00 PM
Apr 20
39 °FChilly.2 mph57%30.29 "HgN/A
7:00 PM40 °FQuite cool.2 mph52%30.30 "HgN/A
6:00 PM42 °FQuite cool.2 mph51%30.31 "HgN/A
5:00 PM41 °FQuite cool.5 mph52%30.32 "HgN/A
4:00 PM41 °FQuite cool.6 mph51%30.32 "HgN/A
3:00 PM40 °FChilly.3 mph50%30.32 "HgN/A
2:00 PM40 °FChilly.3 mph50%30.31 "HgN/A
1:00 PM39 °FChilly.5 mph50%30.29 "HgN/A
12:00 PM38 °FChilly.5 mph59%30.27 "HgN/A
11:00 AM38 °FChilly.6 mph55%30.24 "HgN/A
10:00 AM37 °FChilly.9 mph69%30.18 "HgN/A
9:00 AM35 °FChilly.9 mph72%30.16 "HgN/A
8:00 AM33 °FChilly.7 mph81%30.14 "HgN/A
7:00 AM33 °FChilly.9 mph87%30.12 "HgN/A
6:00 AM32 °FChilly.9 mph94%30.07 "HgN/A
5:00 AM33 °FChilly.10 mph89%30.03 "HgN/A
4:00 AM35 °FChilly.10 mph74%29.98 "HgN/A
3:00 AM35 °FChilly.15 mph75%29.94 "HgN/A
2:00 AM35 °FChilly.9 mph88%29.87 "HgN/A
1:00 AM36 °FChilly.12 mph76%29.78 "HgN/A
12:00 AM35 °FChilly.14 mph85%29.73 "HgN/A
11:00 PM
Apr 19
37 °FChilly.13 mph67%29.69 "HgN/A
10:00 PM36 °FChilly.15 mph75%29.68 "HgN/A
Weather by CustomWeather, © 2014

See weather overview